[[{"header":{"parameterUnit":"m.s-1","parameterCategory":1,"la1":30.2991,"la2":30.254,"lo1":-89.0895,"lo2":-89.0444,"dy":0.0017,"dx":0.0017,"nx":28,"ny":28,"refTime":"2023-08-19T03:00:00:Z","depth":0,"parameterNumber":2,"parameterNumberName":"U-component_of_WINDS"},"data":[0,0,0,0,0,0,0,0,0,0,0,0,0,0,0,0,0,0,0,0,0,0,0,0,0,0,0,0,0,0,0,0,0,0,0,0,0,0,0,0,0,0,0,0,0,0,0,0,0,0,0,0,0,0,0,0,0,0,1.4867,1.4867,0,1.4919,1.492,1.4921,1.489,1.4888,1.4887,1.4885,1.4943,1.4946,1.4949,0,0,0,0,0,0,0,0,0,0,0,0,0,1.4745,1.4747,1.4867,1.4868,1.4868,1.4919,1.492,1.4921,1.489,1.4888,1.4886,1.4885,1.4942,1.4945,1.4949,0,0,0,0,0,0,0,0,0,0,0,0,0,1.4798,1.4748,1.4867,1.4859,1.4859,1.4919,1.492,1.4921,1.489,1.4888,1.4886,1.4884,1.4941,1.4945,1.4949,1.5021,0,0,1.4963,1.4965,0,0,0,0,0,0,0,0,1.4795,1.4802,1.4859,1.486,1.4859,1.4896,1.4898,1.4955,1.4891,1.4879,1.4885,1.4883,1.4929,1.4934,1.4949,1.5024,1.5027,1.4963,1.4966,1.4968,1.4969,0,0,0,0,0,0,0,1.4791,1.48,1.4888,1.486,1.486,1.4854,1.4859,1.4909,1.4916,1.4879,1.4877,1.4884,1.4929,1.4945,1.495,1.5027,1.4963,1.4967,1.497,1.4971,1.5166,1.5168,0,0,0,0,0,0,1.4787,1.4797,1.4886,1.4889,1.4821,1.4858,1.4864,1.4886,1.4915,1.4917,1.4886,1.4882,1.4939,1.4945,1.4952,1.5039,1.4968,1.4972,1.4974,1.5163,1.5166,1.5169,0,0,0,0,0,0,1.4785,1.4796,1.4884,1.4843,1.4853,1.4863,1.4888,1.4889,1.4905,1.492,1.4922,1.4901,1.4937,1.4946,1.5005,1.5041,1.4974,1.4978,1.516,1.5164,1.5168,1.5213,0,0,0,0,0,0,1.4781,1.4795,1.4821,1.4843,1.4856,1.4934,1.489,1.4891,1.4912,1.4908,1.4934,1.4937,1.4936,1.4998,1.5009,1.5045,1.4981,1.5157,1.5162,1.5167,1.5208,1.5218,1.5226,0,0,0,0,0,1.4777,1.4832,1.4822,1.4833,1.4888,1.4936,1.4943,1.494,1.4915,1.4942,1.4952,1.4936,1.5035,1.5004,1.5016,1.5055,1.5155,1.5161,1.5166,1.5204,1.5216,1.5226,0,0,0,0,0,0,1.4814,1.4835,1.4824,1.4888,1.491,1.4931,1.4965,1.4953,1.4984,1.4979,1.4975,1.4981,1.5042,1.5055,1.502,1.5127,1.5091,1.51,1.5116,1.5127,1.5136,1.5131,1.4985,0,0,0,0,0,1.483,1.4866,1.4882,1.4937,1.4949,1.4955,1.4976,1.4972,1.4995,1.5005,1.5019,1.5044,1.5081,1.5105,1.514,1.521,1.5216,1.5243,1.5252,1.5259,1.5266,1.5305,1.5318,1.5188,1.5188,1.5188,0,0,1.4863,1.4878,1.4901,1.4945,1.4961,1.5,1.4963,1.5005,1.5034,1.5012,1.5067,1.5079,1.5106,1.5171,1.5201,1.5184,1.5303,1.5266,1.5272,1.5275,1.5313,1.5325,1.5336,1.5192,1.5191,1.519,0,0,1.4941,1.4956,1.5004,1.5022,1.5048,1.5052,1.5063,1.5086,1.5093,1.5148,1.5133,1.5168,1.5232,1.5252,1.5271,1.536,1.5346,1.5371,1.5417,1.5456,1.5466,1.5475,1.5507,1.5519,1.5379,1.5379,1.5379,0,1.4978,1.5034,1.503,1.5073,1.5093,1.5075,1.5124,1.5142,1.5178,1.5194,1.5174,1.5253,1.5271,1.5341,1.5363,1.5378,1.5392,1.5367,1.5465,1.5474,1.5482,1.5513,1.5525,1.5382,1.5381,1.5381,1.5381,0,1.5079,1.5118,1.5154,1.5188,1.5213,1.5259,1.5263,1.5289,1.5284,1.5291,1.5349,1.5369,1.5408,1.5425,1.542,1.5495,1.5484,1.5465,1.5428,1.5497,1.5526,1.5538,1.5386,1.5385,1.5384,1.5383,0,0,1.518,1.5213,1.5226,1.5242,1.5271,1.5302,1.5348,1.5385,1.5408,1.5435,1.5474,1.5529,1.5512,1.5533,1.5531,1.5565,1.5635,1.5542,1.5543,1.5559,1.572,1.5733,1.5747,1.5627,1.5629,1.5631,1.5717,0,1.526,1.5339,1.5337,1.5411,1.5448,1.5433,1.5473,1.5496,1.5505,1.5539,1.5549,1.5587,1.5562,1.5575,1.5608,1.562,1.5667,1.5614,1.5664,1.5666,1.5657,1.5762,1.5776,1.5856,1.5728,1.573,1.5732,0,1.5363,1.5392,1.547,1.5494,1.551,1.5546,1.5581,1.5613,1.564,1.5644,1.5668,1.5662,1.5711,1.5675,1.5743,1.5706,1.5727,1.5737,1.574,1.5744,1.5702,1.5768,1.5882,1.5894,1.5749,1.5748,1.5747,0,1.5429,1.5488,1.5542,1.5557,1.5586,1.5612,1.5626,1.5651,1.5674,1.5705,1.572,1.5758,1.5778,1.5808,1.5812,1.5785,1.5881,1.5845,1.5886,1.5886,1.5906,1.5905,1.6024,1.5921,1.5921,1.5921,1.592,0,1.5517,1.5565,1.5572,1.5605,1.5659,1.5659,1.5713,1.5725,1.5747,1.5783,1.5773,1.5808,1.5812,1.5849,1.5853,1.5909,1.5919,1.5924,1.5924,1.5924,1.5924,1.5937,1.5932,1.5924,1.5923,1.5923,1.5922,0,1.5599,1.5605,1.5663,1.5687,1.5695,1.5733,1.5755,1.5787,1.5796,1.5842,1.5853,1.5867,1.591,1.5917,1.5968,1.5971,1.6038,1.6033,1.6028,1.6028,1.6069,1.6065,1.6201,1.6219,1.6104,1.6106,1.6106,0,1.5654,1.5691,1.5719,1.5742,1.5757,1.5795,1.5819,1.5821,1.5846,1.588,1.5909,1.5951,1.5984,1.6054,1.6069,1.6108,1.6104,1.6149,1.6109,1.6109,1.6104,1.6102,1.6106,1.6156,1.6157,1.6158,1.6159,0,1.5752,1.5754,1.5788,1.5823,1.5852,1.588,1.5907,1.5927,1.5933,1.5962,1.6006,1.6031,1.6083,1.6125,1.6165,1.6181,1.6172,1.6172,1.6183,1.6183,1.6179,1.6182,1.6048,1.6168,1.6167,1.6166,1.6166,1.6166,1.5822,1.5854,1.5879,1.5918,1.5938,1.5964,1.5996,1.6009,1.6045,1.6086,1.6086,1.6134,1.6162,1.6214,1.6233,1.6271,1.6257,1.6274,1.6278,1.6282,1.6286,1.6174,1.6279,1.6278,1.6278,1.6278,1.6278,0,1.5919,1.5935,1.597,1.6008,1.6039,1.6028,1.6058,1.6084,1.6126,1.6153,1.6186,1.6236,1.6278,1.6297,1.6338,1.6365,1.6362,1.6376,1.6374,1.6378,1.6296,1.6282,1.6378,1.6378,1.6378,1.6378,1.6378,1.6378,1.5973,1.6027,1.6032,1.6097,1.6113,1.6159,1.6177,1.6202,1.6223,1.628,1.6314,1.6326,1.635,1.6393,1.6431,1.6436,1.6452,1.6467,1.647,1.6394,1.6383,1.6374,1.636,1.6471,1.6471,1.6548,1.6549,1.655]},{"header":{"parameterUnit":"m.s-1","parameterCategory":1,"la1":30.2991,"la2":30.254,"lo1":-89.0895,"lo2":-89.0444,"dy":0.0017,"dx":0.0017,"nx":28,"ny":28,"refTime":"2023-08-19T03:00:00:Z","depth":0,"parameterNumber":3,"parameterNumberName":"V-component_of_WINDS"},"data":[0,0,0,0,0,0,0,0,0,0,0,0,0,0,0,0,0,0,0,0,0,0,0,0,0,0,0,0,0,0,0,0,0,0,0,0,0,0,0,0,0,0,0,0,0,0,0,0,0,0,0,0,0,0,0,0,0,0,3.3647,3.3649,0,3.3798,3.38,3.3802,3.3804,3.3802,3.3801,3.3799,3.3944,3.3949,3.3955,0,0,0,0,0,0,0,0,0,0,0,0,0,3.3352,3.3357,3.3647,3.3649,3.3651,3.3798,3.38,3.3802,3.3805,3.3802,3.38,3.3798,3.3942,3.3949,3.3955,0,0,0,0,0,0,0,0,0,0,0,0,0,3.3489,3.3359,3.3646,3.367,3.3674,3.3798,3.38,3.3803,3.3805,3.3802,3.38,3.3797,3.394,3.3948,3.3956,3.4064,0,0,3.3982,3.3985,0,0,0,0,0,0,0,0,3.3481,3.35,3.3665,3.3669,3.3673,3.378,3.3749,3.389,3.3806,3.3755,3.3799,3.3796,3.3891,3.3903,3.3937,3.4071,3.4077,3.3983,3.3988,3.3991,3.3994,0,0,0,0,0,0,0,3.3472,3.3493,3.3706,3.3667,3.3672,3.367,3.3687,3.3776,3.3836,3.3759,3.376,3.3778,3.3892,3.3929,3.3941,3.4079,3.3982,3.399,3.3995,3.3998,3.431,3.4313,0,0,0,0,0,0,3.3459,3.3485,3.3702,3.3711,3.3568,3.3678,3.3696,3.3748,3.3835,3.3846,3.378,3.3778,3.3916,3.3931,3.3946,3.408,3.3991,3.3999,3.4004,3.4307,3.4311,3.4315,0,0,0,0,0,0,3.3452,3.3478,3.3695,3.3599,3.3626,3.3686,3.3744,3.3753,3.3789,3.3852,3.3861,3.3807,3.3915,3.3934,3.4036,3.4084,3.4003,3.401,3.4303,3.4308,3.4313,3.4347,0,0,0,0,0,0,3.3444,3.3476,3.3519,3.36,3.3631,3.3786,3.3747,3.3758,3.3805,3.3803,3.388,3.3889,3.3914,3.4023,3.4044,3.4095,3.4017,3.4299,3.4306,3.4311,3.4341,3.4352,3.4361,0,0,0,0,0,3.3433,3.352,3.3521,3.3547,3.3687,3.3788,3.3806,3.3835,3.3809,3.3852,3.3892,3.3887,3.4076,3.4034,3.4057,3.4111,3.4296,3.4304,3.4311,3.4337,3.435,3.4361,0,0,0,0,0,0,3.3439,3.3531,3.3533,3.3649,3.3712,3.3789,3.3844,3.3848,3.3916,3.3911,3.3941,3.3958,3.406,3.4095,3.4047,3.4221,3.4182,3.4195,3.4194,3.4207,3.4217,3.4206,3.4024,0,0,0,0,0,3.3455,3.3532,3.3606,3.3701,3.3733,3.3783,3.3828,3.3846,3.391,3.3935,3.3983,3.4043,3.4116,3.4163,3.4234,3.4346,3.4363,3.4395,3.4405,3.4413,3.4423,3.4487,3.4502,3.4339,3.4339,3.4338,0,0,3.3485,3.3545,3.3591,3.3704,3.3754,3.3832,3.3805,3.3887,3.3945,3.3947,3.4048,3.4085,3.4153,3.4262,3.4312,3.4294,3.4472,3.4422,3.4428,3.4434,3.4496,3.4511,3.4525,3.4344,3.4343,3.4342,0,0,3.3583,3.3636,3.3722,3.3774,3.3853,3.3886,3.3907,3.3985,3.4011,3.4113,3.4117,3.4183,3.4308,3.4358,3.44,3.4519,3.4517,3.454,3.4592,3.4654,3.4667,3.4678,3.4722,3.4737,3.455,3.4551,3.4551,0,3.3611,3.3731,3.3764,3.3849,3.3898,3.3908,3.3995,3.4042,3.4138,3.4171,3.4151,3.431,3.4356,3.4478,3.4507,3.454,3.4564,3.4532,3.4663,3.4675,3.4686,3.4728,3.4744,3.4553,3.4553,3.4552,3.4552,0,3.3762,3.3845,3.3905,3.4003,3.4058,3.4143,3.4187,3.4239,3.4252,3.4287,3.4391,3.4448,3.4532,3.4561,3.4573,3.4685,3.4672,3.4657,3.4619,3.4703,3.4743,3.4759,3.4557,3.4556,3.4555,3.4554,0,0,3.3866,3.3984,3.4005,3.4051,3.4139,3.4203,3.4287,3.4373,3.4417,3.4483,3.4554,3.4661,3.4649,3.4696,3.4714,3.4768,3.486,3.4746,3.4748,3.4766,3.4988,3.5,3.5018,3.4859,3.4863,3.4865,3.4983,0,3.3973,3.4129,3.4163,3.4296,3.4373,3.4385,3.4459,3.452,3.4555,3.4623,3.466,3.4737,3.4714,3.4743,3.4797,3.4838,3.4905,3.4829,3.4925,3.4928,3.4909,3.5039,3.5051,3.5159,3.4998,3.5001,3.5003,0,3.4119,3.4195,3.4337,3.4418,3.4451,3.4518,3.46,3.4666,3.4735,3.4757,3.4812,3.4824,3.4911,3.4869,3.4989,3.4937,3.4977,3.5003,3.5008,3.5018,3.4971,3.5053,3.5194,3.5211,3.5027,3.5025,3.5024,0,3.4183,3.4318,3.4422,3.446,3.4556,3.4603,3.4645,3.4712,3.4762,3.4832,3.4865,3.4943,3.4986,3.5045,3.5077,3.5044,3.5195,3.5155,3.5214,3.5214,3.5246,3.5243,3.5396,3.527,3.527,3.527,3.527,0,3.43,3.4387,3.4452,3.4516,3.4613,3.465,3.4744,3.4785,3.4845,3.4915,3.4928,3.4992,3.5031,3.5101,3.5126,3.5222,3.5241,3.526,3.5266,3.526,3.5257,3.5287,3.5281,3.5274,3.5273,3.5272,3.5272,0,3.4387,3.4434,3.4548,3.4632,3.4655,3.4723,3.4794,3.4855,3.4891,3.498,3.5002,3.5058,3.5141,3.518,3.5281,3.5298,3.5408,3.5407,3.5386,3.5388,3.5445,3.544,3.5623,3.5649,3.5505,3.5507,3.5508,0,3.4459,3.4527,3.462,3.467,3.4715,3.4794,3.4847,3.4885,3.4939,3.5025,3.5075,3.516,3.523,3.5362,3.5409,3.5487,3.549,3.5549,3.5501,3.5494,3.5492,3.5488,3.5496,3.5557,3.5558,3.556,3.5561,0,3.4583,3.4604,3.4681,3.4768,3.4832,3.4901,3.4968,3.5007,3.5056,3.5115,3.5203,3.5258,3.5364,3.5448,3.553,3.5569,3.5573,3.5575,3.5593,3.5588,3.5574,3.5584,3.541,3.5571,3.557,3.5569,3.5569,3.5568,3.4666,3.4728,3.4804,3.489,3.4946,3.5009,3.5072,3.5118,3.5193,3.5286,3.5303,3.5396,3.5464,3.5576,3.5618,3.569,3.5676,3.5701,3.5708,3.5714,3.5719,3.5562,3.5705,3.5704,3.5704,3.5704,3.5704,0,3.4791,3.4842,3.4921,3.5018,3.5086,3.5088,3.5163,3.5218,3.5302,3.5367,3.5437,3.5538,3.562,3.5676,3.5758,3.5805,3.5809,3.5825,3.5823,3.5832,3.5726,3.5703,3.5821,3.5821,3.5821,3.5821,3.5821,3.5821,3.4865,3.4971,3.5001,3.5134,3.5183,3.5279,3.5322,3.538,3.5432,3.5547,3.5617,3.5654,3.5715,3.5802,3.5877,3.5891,3.5921,3.5938,3.5952,3.5851,3.5839,3.5827,3.5806,3.5944,3.5944,3.6052,3.6053,3.6054]}]]